Year,Month,Day,Hour,Minute,Value (Times are PST for temperature in C)
2007,09,23,00,00,7.20
2007,09,23,00,01,7.20
2007,09,23,00,02,7.20
2007,09,23,00,03,7.30
2007,09,23,00,04,7.30
2007,09,23,00,05,7.20
2007,09,23,00,06,7.20
2007,09,23,00,07,7.20
2007,09,23,00,08,7.20
2007,09,23,00,09,7.20
2007,09,23,00,10,7.30
2007,09,23,00,11,7.20
2007,09,23,00,12,7.20
2007,09,23,00,13,7.20
2007,09,23,00,14,7.20
2007,09,23,00,15,7.20
2007,09,23,00,16,7.20
2007,09,23,00,17,7.20
2007,09,23,00,18,7.20
2007,09,23,00,19,7.20
2007,09,23,00,20,7.20
2007,09,23,00,21,7.10
2007,09,23,00,22,7.10
2007,09,23,00,23,7.10
2007,09,23,00,24,7.10
2007,09,23,00,25,7.20
2007,09,23,00,26,7.20
2007,09,23,00,27,7.20
2007,09,23,00,28,7.20
2007,09,23,00,29,7.10
2007,09,23,00,30,7.10
2007,09,23,00,31,7.20
2007,09,23,00,32,7.20
2007,09,23,00,33,7.10
2007,09,23,00,34,7.10
2007,09,23,00,35,7.10
2007,09,23,00,36,7.20
2007,09,23,00,37,7.20
2007,09,23,00,38,7.20
2007,09,23,00,39,7.20
2007,09,23,00,40,7.20
2007,09,23,00,41,7.20
2007,09,23,00,42,7.10
2007,09,23,00,43,7.10
2007,09,23,00,44,7.10
2007,09,23,00,45,7.10
2007,09,23,00,46,7.10
2007,09,23,00,47,7.10
2007,09,23,00,48,7.10
2007,09,23,00,49,7.10
2007,09,23,00,50,7.00
2007,09,23,00,51,7.00
2007,09,23,00,52,7.00
2007,09,23,00,53,7.00
2007,09,23,00,54,7.00
2007,09,23,00,55,7.00
2007,09,23,00,56,7.00
2007,09,23,00,57,7.00
2007,09,23,00,58,7.00
2007,09,23,00,59,7.00
2007,09,23,01,00,7.00
2007,09,23,01,01,7.00
2007,09,23,01,02,7.00
2007,09,23,01,03,7.00
2007,09,23,01,04,7.00
2007,09,23,01,05,7.00
2007,09,23,01,06,6.90
2007,09,23,01,07,6.90
2007,09,23,01,08,6.90
2007,09,23,01,09,6.90
2007,09,23,01,10,6.90
2007,09,23,01,11,6.90
2007,09,23,01,12,6.90
2007,09,23,01,13,6.90
2007,09,23,01,14,6.90
2007,09,23,01,15,7.00
2007,09,23,01,16,7.00
2007,09,23,01,17,7.00
2007,09,23,01,18,7.10
2007,09,23,01,19,7.00
2007,09,23,01,20,7.00
2007,09,23,01,21,7.00
2007,09,23,01,22,7.00
2007,09,23,01,23,7.00
2007,09,23,01,24,7.00
2007,09,23,01,25,7.00
2007,09,23,01,26,7.00
2007,09,23,01,27,7.00
2007,09,23,01,28,7.00
2007,09,23,01,29,7.00
2007,09,23,01,30,7.00
2007,09,23,01,31,7.00
2007,09,23,01,32,7.00
2007,09,23,01,33,7.00
2007,09,23,01,34,7.00
2007,09,23,01,35,6.90
2007,09,23,01,36,6.90
2007,09,23,01,37,7.00
2007,09,23,01,38,7.00
2007,09,23,01,39,6.90
2007,09,23,01,40,6.90
2007,09,23,01,41,6.90
2007,09,23,01,42,6.90
2007,09,23,01,43,6.90
2007,09,23,01,44,6.90
2007,09,23,01,45,6.90
2007,09,23,01,46,6.90
2007,09,23,01,47,6.90
2007,09,23,01,48,6.90
2007,09,23,01,49,6.80
2007,09,23,01,50,6.80
2007,09,23,01,51,6.80
2007,09,23,01,52,6.90
2007,09,23,01,53,6.90
2007,09,23,01,54,6.90
2007,09,23,01,55,6.90
2007,09,23,01,56,6.90
2007,09,23,01,57,6.90
2007,09,23,01,58,6.90
2007,09,23,01,59,6.90
2007,09,23,02,00,6.90
2007,09,23,02,01,6.90
2007,09,23,02,02,7.00
2007,09,23,02,03,7.00
2007,09,23,02,04,7.10
2007,09,23,02,05,7.10
2007,09,23,02,06,7.10
2007,09,23,02,07,7.10
2007,09,23,02,08,7.10
2007,09,23,02,09,7.10
2007,09,23,02,10,7.10
2007,09,23,02,11,7.20
2007,09,23,02,12,7.20
2007,09,23,02,13,7.20
2007,09,23,02,14,7.10
2007,09,23,02,15,7.10
2007,09,23,02,16,7.10
2007,09,23,02,17,7.10
2007,09,23,02,18,7.10
2007,09,23,02,19,7.10
2007,09,23,02,20,7.10
2007,09,23,02,21,7.10
2007,09,23,02,22,7.10
2007,09,23,02,23,7.10
2007,09,23,02,24,7.20
2007,09,23,02,25,7.20
2007,09,23,02,26,7.20
2007,09,23,02,27,7.20
2007,09,23,02,28,7.20
2007,09,23,02,29,7.20
2007,09,23,02,30,7.20
2007,09,23,02,31,7.20
2007,09,23,02,32,7.30
2007,09,23,02,33,7.30
2007,09,23,02,34,7.30
2007,09,23,02,35,7.30
2007,09,23,02,36,7.30
2007,09,23,02,37,7.30
2007,09,23,02,38,7.40
2007,09,23,02,39,7.40
2007,09,23,02,40,7.40
2007,09,23,02,41,7.50
2007,09,23,02,42,7.50
2007,09,23,02,43,7.60
2007,09,23,02,44,7.60
2007,09,23,02,45,7.60
2007,09,23,02,46,7.60
2007,09,23,02,47,7.60
2007,09,23,02,48,7.70
2007,09,23,02,49,7.70
2007,09,23,02,50,7.70
2007,09,23,02,51,7.80
2007,09,23,02,52,7.80
2007,09,23,02,53,7.80
2007,09,23,02,54,7.80
2007,09,23,02,55,7.80
2007,09,23,02,56,7.80
2007,09,23,02,57,7.80
2007,09,23,02,58,7.90
2007,09,23,02,59,7.90
2007,09,23,03,00,7.90
2007,09,23,03,01,7.90
2007,09,23,03,02,7.90
2007,09,23,03,03,7.90
2007,09,23,03,04,7.90
2007,09,23,03,05,7.90
2007,09,23,03,06,7.90
2007,09,23,03,07,7.90
2007,09,23,03,08,7.90
2007,09,23,03,09,7.90
2007,09,23,03,10,7.90
2007,09,23,03,11,7.90
2007,09,23,03,12,7.90
2007,09,23,03,13,7.90
2007,09,23,03,14,7.90
2007,09,23,03,15,7.90
2007,09,23,03,16,7.90
2007,09,23,03,17,7.90
2007,09,23,03,18,7.90
2007,09,23,03,19,7.80
2007,09,23,03,20,7.80
2007,09,23,03,21,7.80
2007,09,23,03,22,7.80
2007,09,23,03,23,7.80
2007,09,23,03,24,7.70
2007,09,23,03,25,7.70
2007,09,23,03,26,7.70
2007,09,23,03,27,7.70
2007,09,23,03,28,7.70
2007,09,23,03,29,7.60
2007,09,23,03,30,7.60
2007,09,23,03,31,7.60
2007,09,23,03,32,7.70
2007,09,23,03,33,7.70
2007,09,23,03,34,7.70
2007,09,23,03,35,7.70
2007,09,23,03,36,7.80
2007,09,23,03,37,7.80
2007,09,23,03,38,7.80
2007,09,23,03,39,7.80
2007,09,23,03,40,7.80
2007,09,23,03,41,7.90
2007,09,23,03,42,7.90
2007,09,23,03,43,8.00
2007,09,23,03,44,8.00
2007,09,23,03,45,8.10
2007,09,23,03,46,8.20
2007,09,23,03,47,8.30
2007,09,23,03,48,8.30
2007,09,23,03,49,8.30
2007,09,23,03,50,8.30
2007,09,23,03,51,8.40
2007,09,23,03,52,8.50
2007,09,23,03,53,8.60
2007,09,23,03,54,8.70
2007,09,23,03,55,8.70
2007,09,23,03,56,8.70
2007,09,23,03,57,8.70
2007,09,23,03,58,8.80
2007,09,23,03,59,8.80
2007,09,23,04,00,8.90
2007,09,23,04,01,9.00
2007,09,23,04,02,9.10
2007,09,23,04,03,9.10
2007,09,23,04,04,9.20
2007,09,23,04,05,9.20
2007,09,23,04,06,9.20
2007,09,23,04,07,9.20
2007,09,23,04,08,9.30
2007,09,23,04,09,9.30
2007,09,23,04,10,9.40
2007,09,23,04,11,9.60
2007,09,23,04,12,9.70
2007,09,23,04,13,9.80
2007,09,23,04,14,9.80
2007,09,23,04,15,9.90
2007,09,23,04,16,10.00
2007,09,23,04,17,10.00
2007,09,23,04,18,10.10
2007,09,23,04,19,10.10
2007,09,23,04,20,10.20
2007,09,23,04,21,10.20
2007,09,23,04,22,10.10
2007,09,23,04,23,10.20
2007,09,23,04,24,10.20
2007,09,23,04,25,10.20
2007,09,23,04,26,10.20
2007,09,23,04,27,10.20
2007,09,23,04,28,10.20
2007,09,23,04,29,10.30
2007,09,23,04,30,10.30
2007,09,23,04,31,10.40
2007,09,23,04,32,10.40
2007,09,23,04,33,10.50
2007,09,23,04,34,10.50
2007,09,23,04,35,10.60
2007,09,23,04,36,10.70
2007,09,23,04,37,10.70
2007,09,23,04,38,10.70
2007,09,23,04,39,10.80
2007,09,23,04,40,10.80
2007,09,23,04,41,10.80
2007,09,23,04,42,10.80
2007,09,23,04,43,10.80
2007,09,23,04,44,10.80
2007,09,23,04,45,10.80
2007,09,23,04,46,10.80
2007,09,23,04,47,10.80
2007,09,23,04,48,10.70
2007,09,23,04,49,10.70
2007,09,23,04,50,10.70
2007,09,23,04,51,10.70
2007,09,23,04,52,10.70
2007,09,23,04,53,10.70
2007,09,23,04,54,10.70
2007,09,23,04,55,10.70
2007,09,23,04,56,10.70
2007,09,23,04,57,10.70
2007,09,23,04,58,10.70
2007,09,23,04,59,10.70
2007,09,23,05,00,10.70
2007,09,23,05,01,10.70
2007,09,23,05,02,10.60
2007,09,23,05,03,10.60
2007,09,23,05,04,10.60
2007,09,23,05,05,10.60
2007,09,23,05,06,10.60
2007,09,23,05,07,10.60
2007,09,23,05,08,10.60
2007,09,23,05,09,10.60
2007,09,23,05,10,10.60
2007,09,23,05,11,10.60
2007,09,23,05,12,10.60
2007,09,23,05,13,10.60
2007,09,23,05,14,10.60
2007,09,23,05,15,10.60
2007,09,23,05,16,10.60
2007,09,23,05,17,10.60
2007,09,23,05,18,10.60
2007,09,23,05,19,10.60
2007,09,23,05,20,10.60
2007,09,23,05,21,10.70
2007,09,23,05,22,10.70
2007,09,23,05,23,10.70
2007,09,23,05,24,10.70
2007,09,23,05,25,10.70
2007,09,23,05,26,10.70
2007,09,23,05,27,10.70
2007,09,23,05,28,10.70
2007,09,23,05,29,10.70
2007,09,23,05,30,10.70
2007,09,23,05,31,10.70
2007,09,23,05,32,10.70
2007,09,23,05,33,10.80
2007,09,23,05,34,10.80
2007,09,23,05,35,10.80
2007,09,23,05,36,10.80
2007,09,23,05,37,10.80
2007,09,23,05,38,10.80
2007,09,23,05,39,10.80
2007,09,23,05,40,10.80
2007,09,23,05,41,10.80
2007,09,23,05,42,10.80
2007,09,23,05,43,10.80
2007,09,23,05,44,10.80
2007,09,23,05,45,10.80
2007,09,23,05,46,10.90
2007,09,23,05,47,10.90
2007,09,23,05,48,10.90
2007,09,23,05,49,10.90
2007,09,23,05,50,10.90
2007,09,23,05,51,10.90
2007,09,23,05,52,10.90
2007,09,23,05,53,10.90
2007,09,23,05,54,10.90
2007,09,23,05,55,10.90
2007,09,23,05,56,10.90
2007,09,23,05,57,11.00
2007,09,23,05,58,11.00
2007,09,23,05,59,11.00
2007,09,23,06,00,11.00
2007,09,23,06,01,11.10
2007,09,23,06,02,11.10
2007,09,23,06,03,11.10
2007,09,23,06,04,11.10
2007,09,23,06,05,11.10
2007,09,23,06,06,11.10
2007,09,23,06,07,11.10
2007,09,23,06,08,11.10
2007,09,23,06,09,11.20
2007,09,23,06,10,11.20
2007,09,23,06,11,11.20
2007,09,23,06,12,11.20
2007,09,23,06,13,11.20
2007,09,23,06,14,11.20
2007,09,23,06,15,11.20
2007,09,23,06,16,11.20
2007,09,23,06,17,11.20
2007,09,23,06,18,11.20
2007,09,23,06,19,11.20
2007,09,23,06,20,11.20
2007,09,23,06,21,11.20
2007,09,23,06,22,11.20
2007,09,23,06,23,11.20
2007,09,23,06,24,11.20
2007,09,23,06,25,11.20
2007,09,23,06,26,11.20
2007,09,23,06,27,11.20
2007,09,23,06,28,11.20
2007,09,23,06,29,11.30
2007,09,23,06,30,11.30
2007,09,23,06,31,11.30
2007,09,23,06,32,11.30
2007,09,23,06,33,11.30
2007,09,23,06,34,11.30
2007,09,23,06,35,11.30
2007,09,23,06,36,11.30
2007,09,23,06,37,11.40
2007,09,23,06,38,11.40
2007,09,23,06,39,11.40
2007,09,23,06,40,11.40
2007,09,23,06,41,11.40
2007,09,23,06,42,11.40
2007,09,23,06,43,11.40
2007,09,23,06,44,11.40
2007,09,23,06,45,11.40
2007,09,23,06,46,11.50
2007,09,23,06,47,11.50
2007,09,23,06,48,11.50
2007,09,23,06,49,11.60
2007,09,23,06,50,11.60
2007,09,23,06,51,11.60
2007,09,23,06,52,11.60
2007,09,23,06,53,11.60
2007,09,23,06,54,11.70
2007,09,23,06,55,11.70
2007,09,23,06,56,11.70
2007,09,23,06,57,11.70
2007,09,23,06,58,11.70
2007,09,23,06,59,11.80
2007,09,23,07,00,11.80
2007,09,23,07,01,11.80
2007,09,23,07,02,11.80
2007,09,23,07,03,11.80
2007,09,23,07,04,11.80
2007,09,23,07,05,11.80
2007,09,23,07,06,11.80
2007,09,23,07,07,11.90
2007,09,23,07,08,11.90
2007,09,23,07,09,11.90
2007,09,23,07,10,11.90
2007,09,23,07,11,11.90
2007,09,23,07,12,11.90
2007,09,23,07,13,11.90
2007,09,23,07,14,11.90
2007,09,23,07,15,11.90
2007,09,23,07,16,12.00
2007,09,23,07,17,12.00
2007,09,23,07,18,12.00
2007,09,23,07,19,12.00
2007,09,23,07,20,12.00
2007,09,23,07,21,12.00
2007,09,23,07,22,12.00
2007,09,23,07,23,12.00
2007,09,23,07,24,12.00
2007,09,23,07,25,12.00
2007,09,23,07,26,12.00
2007,09,23,07,27,12.00
2007,09,23,07,28,12.00
2007,09,23,07,29,12.00
2007,09,23,07,30,12.10
2007,09,23,07,31,12.00
2007,09,23,07,32,12.00
2007,09,23,07,33,12.00
2007,09,23,07,34,12.00
2007,09,23,07,35,12.00
2007,09,23,07,36,12.00
2007,09,23,07,37,12.00
2007,09,23,07,38,12.00
2007,09,23,07,39,12.00
2007,09,23,07,40,12.00
2007,09,23,07,41,12.00
2007,09,23,07,42,12.00
2007,09,23,07,43,12.00
2007,09,23,07,44,12.00
2007,09,23,07,45,12.00
2007,09,23,07,46,12.00
2007,09,23,07,47,12.00
2007,09,23,07,48,12.00
2007,09,23,07,49,12.00
2007,09,23,07,50,12.00
2007,09,23,07,51,12.00
2007,09,23,07,52,12.00
2007,09,23,07,53,12.00
2007,09,23,07,54,12.00
2007,09,23,07,55,12.00
2007,09,23,07,56,12.00
2007,09,23,07,57,12.00
2007,09,23,07,58,12.00
2007,09,23,07,59,12.00
2007,09,23,08,00,12.00
2007,09,23,08,01,12.00
2007,09,23,08,02,12.00
2007,09,23,08,03,12.00
2007,09,23,08,04,12.00
2007,09,23,08,05,12.00
2007,09,23,08,06,12.00
2007,09,23,08,07,12.00
2007,09,23,08,08,12.00
2007,09,23,08,09,12.00
2007,09,23,08,10,12.00
2007,09,23,08,11,12.00
2007,09,23,08,12,12.00
2007,09,23,08,13,12.00
2007,09,23,08,14,12.00
2007,09,23,08,15,12.00
2007,09,23,08,16,12.00
2007,09,23,08,17,12.00
2007,09,23,08,18,12.00
2007,09,23,08,19,12.00
2007,09,23,08,20,12.00
2007,09,23,08,21,12.00
2007,09,23,08,22,12.00
2007,09,23,08,23,12.00
2007,09,23,08,24,12.00
2007,09,23,08,25,12.00
2007,09,23,08,26,12.00
2007,09,23,08,27,12.00
2007,09,23,08,28,12.10
2007,09,23,08,29,12.10
2007,09,23,08,30,12.10
2007,09,23,08,31,12.10
2007,09,23,08,32,12.10
2007,09,23,08,33,12.10
2007,09,23,08,34,12.10
2007,09,23,08,35,12.10
2007,09,23,08,36,12.10
2007,09,23,08,37,12.10
2007,09,23,08,38,12.10
2007,09,23,08,39,12.10
2007,09,23,08,40,12.10
2007,09,23,08,41,12.10
2007,09,23,08,42,12.10
2007,09,23,08,43,12.10
2007,09,23,08,44,12.20
2007,09,23,08,45,12.20
2007,09,23,08,46,12.20
2007,09,23,08,47,12.20
2007,09,23,08,48,12.20
2007,09,23,08,49,12.20
2007,09,23,08,50,12.20
2007,09,23,08,51,12.20
2007,09,23,08,52,12.20
2007,09,23,08,53,12.20
2007,09,23,08,54,12.20
2007,09,23,08,55,12.20
2007,09,23,08,56,12.20
2007,09,23,08,57,12.20
2007,09,23,08,58,12.20
2007,09,23,08,59,12.20
2007,09,23,09,00,12.20
2007,09,23,09,01,12.20
2007,09,23,09,02,12.20
2007,09,23,09,03,12.20
2007,09,23,09,04,12.30
2007,09,23,09,05,12.30
2007,09,23,09,06,12.30
2007,09,23,09,07,12.30
2007,09,23,09,08,12.30
2007,09,23,09,09,12.30
2007,09,23,09,10,12.30
2007,09,23,09,11,12.30
2007,09,23,09,12,12.30
2007,09,23,09,13,12.30
2007,09,23,09,14,12.30
2007,09,23,09,15,12.30
2007,09,23,09,16,12.30
2007,09,23,09,17,12.30
2007,09,23,09,18,12.30
2007,09,23,09,19,12.40
2007,09,23,09,20,12.40
2007,09,23,09,21,12.40
2007,09,23,09,22,12.40
2007,09,23,09,23,12.40
2007,09,23,09,24,12.40
2007,09,23,09,25,12.40
2007,09,23,09,26,12.40
2007,09,23,09,27,12.40
2007,09,23,09,28,12.40
2007,09,23,09,29,12.40
2007,09,23,09,30,12.40
2007,09,23,09,31,12.40
2007,09,23,09,32,12.40
2007,09,23,09,33,12.50
2007,09,23,09,34,12.40
2007,09,23,09,35,12.40
2007,09,23,09,36,12.40
2007,09,23,09,37,12.40
2007,09,23,09,38,12.40
2007,09,23,09,39,12.40
2007,09,23,09,40,12.40
2007,09,23,09,41,12.40
2007,09,23,09,42,12.40
2007,09,23,09,43,12.40
2007,09,23,09,44,12.40
2007,09,23,09,45,12.30
2007,09,23,09,46,12.30
2007,09,23,09,47,12.30
2007,09,23,09,48,12.30
2007,09,23,09,49,12.30
2007,09,23,09,50,12.30
2007,09,23,09,51,12.30
2007,09,23,09,52,12.30
2007,09,23,09,53,12.30
2007,09,23,09,54,12.30
2007,09,23,09,55,12.30
2007,09,23,09,56,12.30
2007,09,23,09,57,12.30
2007,09,23,09,58,12.30
2007,09,23,09,59,12.30
2007,09,23,10,00,12.30
2007,09,23,10,01,12.30
2007,09,23,10,02,12.30
2007,09,23,10,03,12.30
2007,09,23,10,04,12.30
2007,09,23,10,05,12.30
2007,09,23,10,06,12.30
2007,09,23,10,07,12.30
2007,09,23,10,08,12.30
2007,09,23,10,09,12.30
2007,09,23,10,10,12.30
2007,09,23,10,11,12.30
2007,09,23,10,12,12.30
2007,09,23,10,13,12.30
2007,09,23,10,14,12.30
2007,09,23,10,15,12.30
2007,09,23,10,16,12.30
2007,09,23,10,17,12.30
2007,09,23,10,18,12.30
2007,09,23,10,19,12.30
2007,09,23,10,20,12.30
2007,09,23,10,21,12.30
2007,09,23,10,22,12.30
2007,09,23,10,23,12.30
2007,09,23,10,24,12.30
2007,09,23,10,25,12.30
2007,09,23,10,26,12.40
2007,09,23,10,27,12.40
2007,09,23,10,28,12.40
2007,09,23,10,29,12.40
2007,09,23,10,30,12.40
2007,09,23,10,31,12.40
2007,09,23,10,32,12.40
2007,09,23,10,33,12.40
2007,09,23,10,34,12.50
2007,09,23,10,35,12.50
2007,09,23,10,36,12.60
2007,09,23,10,37,12.60
2007,09,23,10,38,12.60
2007,09,23,10,39,12.70
2007,09,23,10,40,12.70
2007,09,23,10,41,12.70
2007,09,23,10,42,12.70
2007,09,23,10,43,12.80
2007,09,23,10,44,12.80
2007,09,23,10,45,12.80
2007,09,23,10,46,12.80
2007,09,23,10,47,12.90
2007,09,23,10,48,12.90
2007,09,23,10,49,12.90
2007,09,23,10,50,12.90
2007,09,23,10,51,13.00
2007,09,23,10,52,13.00
2007,09,23,10,53,13.00
2007,09,23,10,54,13.10
2007,09,23,10,55,13.10
2007,09,23,10,56,13.10
2007,09,23,10,57,13.10
2007,09,23,10,58,13.10
2007,09,23,10,59,13.10
2007,09,23,11,00,13.10
2007,09,23,11,01,13.10
2007,09,23,11,02,13.10
2007,09,23,11,03,13.10
2007,09,23,11,04,13.20
2007,09,23,11,05,13.20
2007,09,23,11,06,13.20
2007,09,23,11,07,13.20
2007,09,23,11,08,13.20
2007,09,23,11,09,13.20
2007,09,23,11,10,13.20
2007,09,23,11,11,13.20
2007,09,23,11,12,13.10
2007,09,23,11,13,13.10
2007,09,23,11,14,13.10
2007,09,23,11,15,13.10
2007,09,23,11,16,13.20
2007,09,23,11,17,13.20
2007,09,23,11,18,13.20
2007,09,23,11,19,13.30
2007,09,23,11,20,13.30
2007,09,23,11,21,13.30
2007,09,23,11,22,13.30
2007,09,23,11,23,13.40
2007,09,23,11,24,13.40
2007,09,23,11,25,13.50
2007,09,23,11,26,13.60
2007,09,23,11,27,13.60
2007,09,23,11,28,13.70
2007,09,23,11,29,13.70
2007,09,23,11,30,13.70
2007,09,23,11,31,13.70
2007,09,23,11,32,13.70
2007,09,23,11,33,13.70
2007,09,23,11,34,13.70
2007,09,23,11,35,13.70
2007,09,23,11,36,13.80
2007,09,23,11,37,13.80
2007,09,23,11,38,13.80
2007,09,23,11,39,13.90
2007,09,23,11,40,13.90
2007,09,23,11,41,13.90
2007,09,23,11,42,14.00
2007,09,23,11,43,14.10
2007,09,23,11,44,14.20
2007,09,23,11,45,14.30
2007,09,23,11,46,14.40
2007,09,23,11,47,14.40
2007,09,23,11,48,14.40
2007,09,23,11,49,14.50
2007,09,23,11,50,14.60
2007,09,23,11,51,14.60
2007,09,23,11,52,14.70
2007,09,23,11,53,14.70
2007,09,23,11,54,14.70
2007,09,23,11,55,14.70
2007,09,23,11,56,14.60
2007,09,23,11,57,14.70
2007,09,23,11,58,14.60
2007,09,23,11,59,14.60
2007,09,23,12,00,14.60
2007,09,23,12,01,14.60
2007,09,23,12,02,14.70
2007,09,23,12,03,14.80
2007,09,23,12,04,14.80
2007,09,23,12,05,14.80
2007,09,23,12,06,14.80
2007,09,23,12,07,14.80
2007,09,23,12,08,14.80
2007,09,23,12,09,14.70
2007,09,23,12,10,14.60
2007,09,23,12,11,14.60
2007,09,23,12,12,14.60
2007,09,23,12,13,14.50
2007,09,23,12,14,14.50
2007,09,23,12,15,14.50
2007,09,23,12,16,14.40
2007,09,23,12,17,14.40
2007,09,23,12,18,14.40
2007,09,23,12,19,14.40
2007,09,23,12,20,14.30
2007,09,23,12,21,14.30
2007,09,23,12,22,14.20
2007,09,23,12,23,14.20
2007,09,23,12,24,14.10
2007,09,23,12,25,14.00
2007,09,23,12,26,14.00
2007,09,23,12,27,14.10
2007,09,23,12,28,14.10
2007,09,23,12,29,14.00
2007,09,23,12,30,14.00
2007,09,23,12,31,14.10
2007,09,23,12,32,14.10
2007,09,23,12,33,14.20
2007,09,23,12,34,14.30
2007,09,23,12,35,14.30
2007,09,23,12,36,14.40
2007,09,23,12,37,14.40
2007,09,23,12,38,14.40
2007,09,23,12,39,14.50
2007,09,23,12,40,14.50
2007,09,23,12,41,14.60
2007,09,23,12,42,14.60
2007,09,23,12,43,14.50
2007,09,23,12,44,14.50
2007,09,23,12,45,14.40
2007,09,23,12,46,14.40
2007,09,23,12,47,14.40
2007,09,23,12,48,14.40
2007,09,23,12,49,14.40
2007,09,23,12,50,14.40
2007,09,23,12,51,14.40
2007,09,23,12,52,14.40
2007,09,23,12,53,14.40
2007,09,23,12,54,14.40
2007,09,23,12,55,14.30
2007,09,23,12,56,14.30
2007,09,23,12,57,14.30
2007,09,23,12,58,14.20
2007,09,23,12,59,14.20
2007,09,23,13,00,14.20
2007,09,23,13,01,14.20
2007,09,23,13,02,14.30
2007,09,23,13,03,14.30
2007,09,23,13,04,14.30
2007,09,23,13,05,14.30
2007,09,23,13,06,14.40
2007,09,23,13,07,14.50
2007,09,23,13,08,14.50
2007,09,23,13,09,14.60
2007,09,23,13,10,14.50
2007,09,23,13,11,14.50
2007,09,23,13,12,14.60
2007,09,23,13,13,14.60
2007,09,23,13,14,14.60
2007,09,23,13,15,14.60
2007,09,23,13,16,14.60
2007,09,23,13,17,14.70
2007,09,23,13,18,14.80
2007,09,23,13,19,14.80
2007,09,23,13,20,14.90
2007,09,23,13,21,15.00
2007,09,23,13,22,15.00
2007,09,23,13,23,15.00
2007,09,23,13,24,15.10
2007,09,23,13,25,15.20
2007,09,23,13,26,15.30
2007,09,23,13,27,15.40
2007,09,23,13,28,15.30
2007,09,23,13,29,15.30
2007,09,23,13,30,15.30
2007,09,23,13,31,15.30
2007,09,23,13,32,15.30
2007,09,23,13,33,15.20
2007,09,23,13,34,15.20
2007,09,23,13,35,15.20
2007,09,23,13,36,15.10
2007,09,23,13,37,15.00
2007,09,23,13,38,15.00
2007,09,23,13,39,15.00
2007,09,23,13,40,15.00
2007,09,23,13,41,15.20
2007,09,23,13,42,15.10
2007,09,23,13,43,15.00
2007,09,23,13,44,15.00
2007,09,23,13,45,15.00
2007,09,23,13,46,15.00
2007,09,23,13,47,15.00
2007,09,23,13,48,15.00
2007,09,23,13,49,15.00
2007,09,23,13,50,15.00
2007,09,23,13,51,15.00
2007,09,23,13,52,14.90
2007,09,23,13,53,15.00
2007,09,23,13,54,15.00
2007,09,23,13,55,15.00
2007,09,23,13,56,15.00
2007,09,23,13,57,15.20
2007,09,23,13,58,15.30
2007,09,23,13,59,15.40
2007,09,23,14,00,15.40
2007,09,23,14,01,15.40
2007,09,23,14,02,15.40
2007,09,23,14,03,15.50
2007,09,23,14,04,15.60
2007,09,23,14,05,15.70
2007,09,23,14,06,15.60
2007,09,23,14,07,15.50
2007,09,23,14,08,15.40
2007,09,23,14,09,15.30
2007,09,23,14,10,15.30
2007,09,23,14,11,15.30
2007,09,23,14,12,15.30
2007,09,23,14,13,15.40
2007,09,23,14,14,15.50
2007,09,23,14,15,15.60
2007,09,23,14,16,15.60
2007,09,23,14,17,15.60
2007,09,23,14,18,15.60
2007,09,23,14,19,15.50
2007,09,23,14,20,15.30
2007,09,23,14,21,15.30
2007,09,23,14,22,15.30
2007,09,23,14,23,15.20
2007,09,23,14,24,15.00
2007,09,23,14,25,15.00
2007,09,23,14,26,15.00
2007,09,23,14,27,14.90
2007,09,23,14,28,14.90
2007,09,23,14,29,15.00
2007,09,23,14,30,15.00
2007,09,23,14,31,15.20
2007,09,23,14,32,15.40
2007,09,23,14,33,15.50
2007,09,23,14,34,15.60
2007,09,23,14,35,15.70
2007,09,23,14,36,15.80
2007,09,23,14,37,15.80
2007,09,23,14,38,15.90
2007,09,23,14,39,15.90
2007,09,23,14,40,15.90
2007,09,23,14,41,15.90
2007,09,23,14,42,16.00
2007,09,23,14,43,15.90
2007,09,23,14,44,15.90
2007,09,23,14,45,15.90
2007,09,23,14,46,15.90
2007,09,23,14,47,16.00
2007,09,23,14,48,16.00
2007,09,23,14,49,16.00
2007,09,23,14,50,16.10
2007,09,23,14,51,16.10
2007,09,23,14,52,16.10
2007,09,23,14,53,16.20
2007,09,23,14,54,16.10
2007,09,23,14,55,15.90
2007,09,23,14,56,15.70
2007,09,23,14,57,15.70
2007,09,23,14,58,15.70
2007,09,23,14,59,15.80
2007,09,23,15,00,15.80
2007,09,23,15,01,15.80
2007,09,23,15,02,15.90
2007,09,23,15,03,15.90
2007,09,23,15,04,15.90
2007,09,23,15,05,15.90
2007,09,23,15,06,15.80
2007,09,23,15,07,15.70
2007,09,23,15,08,15.50
2007,09,23,15,09,15.50
2007,09,23,15,10,15.50
2007,09,23,15,11,15.50
2007,09,23,15,12,15.60
2007,09,23,15,13,15.70
2007,09,23,15,14,15.70
2007,09,23,15,15,15.70
2007,09,23,15,16,15.70
2007,09,23,15,17,15.80
2007,09,23,15,18,15.90
2007,09,23,15,19,16.00
2007,09,23,15,20,16.00
2007,09,23,15,21,15.90
2007,09,23,15,22,15.90
2007,09,23,15,23,15.90
2007,09,23,15,24,15.80
2007,09,23,15,25,15.80
2007,09,23,15,26,15.80
2007,09,23,15,27,15.80
2007,09,23,15,28,15.80
2007,09,23,15,29,15.80
2007,09,23,15,30,15.80
2007,09,23,15,31,15.90
2007,09,23,15,32,15.90
2007,09,23,15,33,15.90
2007,09,23,15,34,16.00
2007,09,23,15,35,16.00
2007,09,23,15,36,16.10
2007,09,23,15,37,16.10
2007,09,23,15,38,16.10
2007,09,23,15,39,15.90
2007,09,23,15,40,15.90
2007,09,23,15,41,15.80
2007,09,23,15,42,15.80
2007,09,23,15,43,15.80
2007,09,23,15,44,15.80
2007,09,23,15,45,15.80
2007,09,23,15,46,15.70
2007,09,23,15,47,15.80
2007,09,23,15,48,15.70
2007,09,23,15,49,15.70
2007,09,23,15,50,15.70
2007,09,23,15,51,15.60
2007,09,23,15,52,15.60
2007,09,23,15,53,15.60
2007,09,23,15,54,15.60
2007,09,23,15,55,15.60
2007,09,23,15,56,15.60
2007,09,23,15,57,15.50
2007,09,23,15,58,15.50
2007,09,23,15,59,15.50
2007,09,23,16,00,15.50
2007,09,23,16,01,15.50
2007,09,23,16,02,15.60
2007,09,23,16,03,15.50
2007,09,23,16,04,15.60
2007,09,23,16,05,15.60
2007,09,23,16,06,15.60
2007,09,23,16,07,15.60
2007,09,23,16,08,15.60
2007,09,23,16,09,15.70
2007,09,23,16,10,15.70
2007,09,23,16,11,15.70
2007,09,23,16,12,15.70
2007,09,23,16,13,15.70
2007,09,23,16,14,15.70
2007,09,23,16,15,15.70
2007,09,23,16,16,15.70
2007,09,23,16,17,15.70
2007,09,23,16,18,15.70
2007,09,23,16,19,15.70
2007,09,23,16,20,15.80
2007,09,23,16,21,15.90
2007,09,23,16,22,15.90
2007,09,23,16,23,15.90
2007,09,23,16,24,15.90
2007,09,23,16,25,15.90
2007,09,23,16,26,15.90
2007,09,23,16,27,15.90
2007,09,23,16,28,15.80
2007,09,23,16,29,15.80
2007,09,23,16,30,15.80
2007,09,23,16,31,15.90
2007,09,23,16,32,15.90
2007,09,23,16,33,15.90
2007,09,23,16,34,15.80
2007,09,23,16,35,15.80
2007,09,23,16,36,15.80
2007,09,23,16,37,15.70
2007,09,23,16,38,15.70
2007,09,23,16,39,15.70
2007,09,23,16,40,15.80
2007,09,23,16,41,15.70
2007,09,23,16,42,15.70
2007,09,23,16,43,15.70
2007,09,23,16,44,15.70
2007,09,23,16,45,15.70
2007,09,23,16,46,15.80
2007,09,23,16,47,15.80
2007,09,23,16,48,15.80
2007,09,23,16,49,15.80
2007,09,23,16,50,15.80
2007,09,23,16,51,15.90
2007,09,23,16,52,15.90
2007,09,23,16,53,15.90
2007,09,23,16,54,16.00
2007,09,23,16,55,16.00
2007,09,23,16,56,15.90
2007,09,23,16,57,16.00
2007,09,23,16,58,16.00
2007,09,23,16,59,16.00
2007,09,23,17,00,16.10
2007,09,23,17,01,16.10
2007,09,23,17,02,16.00
2007,09,23,17,03,16.00
2007,09,23,17,04,16.10
2007,09,23,17,05,16.10
2007,09,23,17,06,16.10
2007,09,23,17,07,16.20
2007,09,23,17,08,16.20
2007,09,23,17,09,16.30
2007,09,23,17,10,16.30
2007,09,23,17,11,16.30
2007,09,23,17,12,16.30
2007,09,23,17,13,16.20
2007,09,23,17,14,16.20
2007,09,23,17,15,16.10
2007,09,23,17,16,16.10
2007,09,23,17,17,16.10
2007,09,23,17,18,16.00
2007,09,23,17,19,16.00
2007,09,23,17,20,16.00
2007,09,23,17,21,16.00
2007,09,23,17,22,16.10
2007,09,23,17,23,16.10
2007,09,23,17,24,16.10
2007,09,23,17,25,16.10
2007,09,23,17,26,16.20
2007,09,23,17,27,16.10
2007,09,23,17,28,16.10
2007,09,23,17,29,15.90
2007,09,23,17,30,15.80